Weather reports worldwide

Advertisment
Sines, Portugal (8541): temperature & dewpoint: 16.05.2019 16:00:00 - 22.05.2019 16:00:00 (WEST)Sines, Portugal (8541): wind speed & gusts: 16.05.2019 16:00:00 - 22.05.2019 16:00:00 (WEST)Sines, Portugal (8541): wind direction: 16.05.2019 16:00:00 - 22.05.2019 16:00:00 (WEST)Sines, Portugal (8541): reduced air pressure: 16.05.2019 16:00:00 - 22.05.2019 16:00:00 (WEST)Sines, Portugal (8541): visibility: 16.05.2019 16:00:00 - 22.05.2019 16:00:00 (WEST)Sines, Portugal (8541): precipitation: 16.05.2019 16:00:00 - 22.05.2019 16:00:00 (WEST)
Date & Time tt [°C] td [°C] ff [km/h] ff [kn] fx [km/h] fx [kn] dd ppp [hPa] vv [km] rr [mm]
22.05.2019 16:00:00 20,3 14,3 25 14 - - NW 1017,7 - 0,0
22.05.2019 15:00:00 20,6 14,3 25 14 - - NW 1018,1 50 0,0
22.05.2019 14:00:00 21,0 12,7 22 12 - - NW 1018,1 55 0,0
22.05.2019 13:00:00 20,9 12,1 18 10 - - NW 1018,2 55 0,0
22.05.2019 12:00:00 20,5 13,2 18 10 - - NW 1018,4 55 0,0
22.05.2019 11:00:00 19,4 12,5 11 6 22 12 NW 1018,3 55 0,0
22.05.2019 10:00:00 18,5 13,1 11 6 - - NNW 1018,3 55 0,0
22.05.2019 09:00:00 17,0 13,3 11 6 - - NW 1018,0 - 0,0
22.05.2019 08:00:00 15,1 14,8 4 2 - - NNW 1017,8 - 0,0
22.05.2019 07:00:00 13,4 13,2 7 4 - - NW 1017,4 - 0,0
22.05.2019 06:00:00 13,1 12,9 4 2 - - WNW 1017,0 - 0,0
22.05.2019 05:00:00 12,8 12,7 7 4 - - NNW 1016,9 - 0,0
22.05.2019 04:00:00 13,2 13,1 4 2 - - NW 1017,0 - 0,0
22.05.2019 03:00:00 13,7 13,5 4 2 - - NW 1017,1 - 0,0
22.05.2019 02:00:00 13,4 13,0 7 4 - - N 1017,6 - 0,0
22.05.2019 01:00:00 14,1 13,7 11 6 - - NNW 1018,0 - 0,0
22.05.2019 00:00:00 14,8 14,4 18 10 32 18 NNW 1018,1 - 0,0
21.05.2019 23:00:00 14,9 14,0 22 12 - - NW 1018,3 - 0,0
21.05.2019 22:00:00 15,2 14,1 18 10 - - NW 1018,0 - -
21.05.2019 21:00:00 15,5 13,5 18 10 - - NW 1017,5 - 0,0
21.05.2019 20:00:00 16,4 13,5 18 10 - - NW 1017,2 - 0,0
21.05.2019 19:00:00 17,6 14,1 18 10 - - NW 1016,9 - 0,0
21.05.2019 18:00:00 18,7 13,9 22 12 32 18 WNW 1016,9 - 0,0
21.05.2019 17:00:00 19,8 12,5 18 10 29 16 W 1016,9 - 0,0
21.05.2019 16:00:00 20,3 14,2 18 10 - - W 1017,1 - 0,0
21.05.2019 15:00:00 20,0 14,0 14 8 25 14 WNW 1017,1 55 0,0
21.05.2019 14:00:00 18,8 13,7 18 10 - - WNW 1017,4 60 0,0
21.05.2019 13:00:00 20,0 14,0 18 10 - - WNW 1017,5 82 0,0
21.05.2019 12:00:00 19,5 14,6 14 8 22 12 W 1017,6 50 0,0
21.05.2019 11:00:00 18,7 14,3 7 4 - - WNW 1017,6 40 0,0
21.05.2019 10:00:00 17,1 13,9 7 4 - - WNW 1017,6 20 0,0
21.05.2019 09:00:00 17,3 13,2 7 4 - - N 1017,4 - 0,0
21.05.2019 08:00:00 15,9 14,6 7 4 18 10 NNW 1017,1 - 0,0
21.05.2019 07:00:00 15,2 14,3 11 6 - - NW 1016,9 - 0,0
21.05.2019 06:00:00 15,0 14,5 14 8 29 16 NW 1016,7 - 0,0
21.05.2019 05:00:00 14,9 14,5 18 10 - - NW 1016,6 - 0,0
21.05.2019 04:00:00 14,1 13,6 11 6 - - NW 1016,6 - 0,0
21.05.2019 03:00:00 14,3 13,9 18 10 - - NNW 1016,6 - 0,0
21.05.2019 02:00:00 14,5 13,8 18 10 - - NW 1017,0 - 0,0
21.05.2019 01:00:00 14,7 13,8 14 8 - - NNW 1017,4 - 0,0
21.05.2019 00:00:00 14,7 13,7 25 14 - - NW 1017,5 - 0,0
20.05.2019 23:00:00 14,6 13,4 22 12 36 19 NW 1017,4 - 0,0
20.05.2019 22:00:00 14,9 13,5 22 12 - - NW 1017,1 - -
20.05.2019 21:00:00 15,0 13,6 22 12 32 18 NW 1016,6 - 0,0
20.05.2019 20:00:00 16,1 13,3 25 14 40 21 NW 1016,0 - 0,0
20.05.2019 19:00:00 17,0 13,7 25 14 - - NW 1015,8 - 0,0
20.05.2019 18:00:00 17,9 13,2 25 14 40 21 NW 1015,9 - 0,0
20.05.2019 17:00:00 18,1 13,5 22 12 36 19 WNW 1015,8 - 0,0
20.05.2019 16:00:00 19,1 13,0 25 14 - - NW 1015,9 - 0,0
20.05.2019 15:00:00 19,1 13,2 18 10 32 18 NW 1016,3 70 0,0
20.05.2019 14:00:00 19,2 13,6 18 10 32 18 WNW 1016,3 70 0,0
20.05.2019 13:00:00 17,9 11,5 18 10 - - NW 1016,7 70 0,0
20.05.2019 12:00:00 18,1 11,6 14 8 25 14 NW 1016,7 70 0,0
20.05.2019 11:00:00 17,4 10,7 18 10 - - NW 1016,8 70 0,0
20.05.2019 10:00:00 16,5 9,1 18 10 - - NW 1016,5 70 0,0
20.05.2019 09:00:00 15,5 9,7 7 4 - - N 1016,1 - 0,0
20.05.2019 08:00:00 13,7 9,9 11 6 18 10 NE 1015,9 - 0,0
20.05.2019 07:00:00 11,6 9,1 14 8 - - N 1015,7 - 0,0
20.05.2019 06:00:00 10,6 8,5 11 6 - - NNE 1014,8 - 0,0
20.05.2019 05:00:00 10,7 8,6 11 6 18 10 NNE 1014,9 - 0,0
20.05.2019 04:00:00 11,2 8,6 14 8 - - NNE 1015,1 - 0,0
20.05.2019 03:00:00 11,8 8,0 14 8 25 14 NNE 1015,0 - 0,0
20.05.2019 02:00:00 12,7 7,2 14 8 22 12 N 1015,3 - 0,0
20.05.2019 01:00:00 13,2 11,9 11 6 - - NNW 1015,6 - 0,0
20.05.2019 00:00:00 13,5 12,1 11 6 22 12 NNW 1015,7 - 0,0
19.05.2019 23:00:00 14,3 12,7 14 8 22 12 NW 1015,9 - 0,0
19.05.2019 22:00:00 14,3 12,8 14 8 - - NW 1015,4 - -
19.05.2019 21:00:00 14,5 12,5 11 6 22 12 NW 1015,2 - 0,0
19.05.2019 20:00:00 15,7 12,1 14 8 25 14 NW 1014,8 - 0,0
19.05.2019 19:00:00 16,2 13,3 18 10 - - NW 1014,9 - 0,0
19.05.2019 18:00:00 17,1 14,0 14 8 25 14 WNW 1015,0 - 0,0
19.05.2019 17:00:00 17,9 14,1 18 10 - - W 1015,0 - 0,0
19.05.2019 16:00:00 18,9 14,0 14 8 - - W 1015,4 - 0,0
19.05.2019 15:00:00 19,2 13,4 11 6 22 12 W 1015,7 - 0,0
19.05.2019 14:00:00 19,2 13,7 14 8 25 14 WNW 1016,0 - 0,0
19.05.2019 13:00:00 19,2 13,3 8 4 - - WNW 1016,1 - 0,0
19.05.2019 12:00:00 18,3 13,1 14 8 22 12 WSW 1016,2 - 0,0
19.05.2019 11:00:00 17,5 12,1 11 6 18 10 WSW 1015,9 - 0,0
19.05.2019 10:00:00 17,1 12,5 4 2 - - N 1016,0 - 0,0
19.05.2019 09:00:00 15,3 12,2 7 4 - - NW 1016,2 - 0,0
19.05.2019 08:00:00 14,7 12,3 4 2 - - NNW 1016,0 - 0,0
19.05.2019 07:00:00 14,2 12,3 4 2 - - NNW 1015,8 - 0,0
19.05.2019 06:00:00 14,1 12,5 11 6 - - NW 1015,8 - 0,0
19.05.2019 05:00:00 14,0 11,9 7 4 - - NW 1015,8 - 0,0
19.05.2019 04:00:00 14,0 11,9 7 4 - - NNW 1016,1 - 0,0
19.05.2019 03:00:00 13,8 11,5 11 6 - - NW 1016,3 - 0,0
19.05.2019 02:00:00 13,9 11,7 11 6 18 10 NW 1016,7 - 0,0
19.05.2019 01:00:00 13,4 11,3 11 6 - - NW 1017,4 - 0,0
19.05.2019 00:00:00 13,4 11,2 14 8 25 14 NW 1017,6 - 0,0
18.05.2019 23:00:00 13,6 11,0 18 10 29 16 NW 1017,8 - 0,0
18.05.2019 22:00:00 13,7 10,8 22 12 - - NW 1017,9 - -
18.05.2019 21:00:00 13,8 10,9 22 12 36 19 NW 1017,7 - 0,0
18.05.2019 20:00:00 14,5 10,1 25 14 40 21 NW 1017,5 - 0,0
18.05.2019 19:00:00 15,5 10,9 29 16 - - NW 1017,4 - 0,0
18.05.2019 18:00:00 16,3 10,3 32 18 - - NW 1017,2 - 0,0
18.05.2019 17:00:00 17,1 9,2 32 18 - - NW 1017,4 - 0,0
18.05.2019 16:00:00 17,2 8,8 32 18 - - NW 1017,4 - 0,0
18.05.2019 15:00:00 17,5 9,9 32 18 - - NW 1017,4 - 0,0
18.05.2019 14:00:00 17,5 9,3 32 18 - - NW 1017,5 - 0,0
18.05.2019 13:00:00 17,5 8,7 29 16 - - NW 1017,8 - 0,0
18.05.2019 12:00:00 17,0 9,7 25 14 40 21 NW 1017,9 - 0,0
18.05.2019 11:00:00 17,1 7,7 18 10 40 21 NNW 1017,9 - 0,0
18.05.2019 10:00:00 15,2 8,3 22 12 - - NNW 1017,7 - 0,0
18.05.2019 09:00:00 15,0 8,5 18 10 36 19 N 1017,4 - 0,0
18.05.2019 08:00:00 13,9 7,5 22 12 36 19 N 1017,2 - 0,0
18.05.2019 07:00:00 12,8 7,4 22 12 - - N 1016,9 - 0,0
18.05.2019 06:00:00 13,0 7,4 18 10 36 19 NNW 1016,4 - 0,0
18.05.2019 05:00:00 13,2 8,3 18 10 29 16 NNW 1016,3 - 0,0
18.05.2019 04:00:00 12,7 8,6 18 10 - - NNW 1016,4 - 0,0
18.05.2019 03:00:00 12,8 8,3 18 10 29 16 NNW 1016,9 - 0,0
18.05.2019 02:00:00 13,4 8,2 14 8 36 19 NNW 1017,4 - 0,0
18.05.2019 01:00:00 13,5 7,2 22 12 - - N 1017,8 - 0,0
18.05.2019 00:00:00 13,4 7,5 22 12 32 18 N 1017,9 - 0,0
17.05.2019 23:00:00 13,8 6,8 22 12 36 19 N 1018,3 - 0,0
17.05.2019 22:00:00 14,1 8,8 18 10 - - N 1017,9 - -
17.05.2019 21:00:00 14,2 9,6 32 18 54 29 NNW 1017,4 - 0,0
17.05.2019 20:00:00 14,6 9,7 40 21 61 33 NW 1017,1 - 0,0
17.05.2019 19:00:00 15,8 9,4 40 21 - - NW 1016,7 - 0,0
17.05.2019 18:00:00 16,2 10,2 40 21 - - NW 1016,7 - 0,0
17.05.2019 17:00:00 17,1 10,0 40 21 - - NW 1017,1 - 0,0
17.05.2019 16:00:00 18,2 10,3 36 19 - - NW 1017,2 - 0,0
17.05.2019 15:00:00 18,7 10,4 32 18 - - NW 1017,7 50 0,0
17.05.2019 14:00:00 18,2 7,7 22 12 47 25 NNW 1018,2 60 0,0
17.05.2019 13:00:00 18,9 8,2 22 12 - - NNW 1018,6 60 0,0
17.05.2019 12:00:00 18,3 9,1 22 12 36 19 N 1018,4 60 0,0
17.05.2019 11:00:00 16,8 9,1 22 12 36 19 N 1018,4 50 0,0
17.05.2019 10:00:00 15,9 7,9 22 12 - - NNW 1018,4 50 0,0
17.05.2019 09:00:00 15,3 6,7 22 12 40 21 N 1018,4 - 0,0
17.05.2019 08:00:00 14,1 6,9 25 14 40 21 N 1018,0 - 0,0
17.05.2019 07:00:00 13,4 7,2 25 14 - - N 1017,8 - 0,0
17.05.2019 06:00:00 13,3 7,1 22 12 40 21 N 1017,5 - 0,0
17.05.2019 05:00:00 13,0 8,1 25 14 40 21 NNW 1017,4 - 0,0
17.05.2019 04:00:00 13,4 8,6 22 12 - - NNW 1017,2 - 0,0
17.05.2019 03:00:00 13,6 7,8 22 12 36 19 NNW 1017,3 - 0,0
17.05.2019 02:00:00 13,9 7,7 22 12 43 23 NNW 1017,4 - 0,0
17.05.2019 01:00:00 14,1 7,5 25 14 - - NNW 1017,5 - 0,0
17.05.2019 00:00:00 14,0 8,8 18 10 40 21 NNW 1017,6 - 0,0
16.05.2019 23:00:00 14,1 9,0 18 10 40 21 N 1017,7 - 0,0
16.05.2019 22:00:00 14,5 8,5 22 12 - - NNW 1017,0 - -
16.05.2019 21:00:00 15,0 7,8 25 14 54 29 N 1016,2 - 0,0
16.05.2019 20:00:00 15,6 9,9 36 19 65 35 NNW 1015,5 - 0,0
16.05.2019 19:00:00 16,7 11,6 43 23 - - NNW 1014,8 - 0,0
16.05.2019 18:00:00 16,8 12,3 50 27 - - NW 1014,9 - 0,0
16.05.2019 17:00:00 18,1 12,8 43 23 65 35 NW 1014,4 - 0,0
16.05.2019 16:00:00 19,1 13,5 40 21 - - NW 1014,3 - 0,0

tt = temperature
td = dewpoint
ff = wind speed
fx = gusts
dd = wind direction
ppp = reduced air pressure
vv = visibility
rr = precipitation

Next stations